Theta_e
301 302 302 303 305 306 306 307 307 305 307 308 309 309 310 307 307 307 306 311 309 309 311 314 316 316 316 314 315 315 316 315 313 314 317 318 314 312 309 309 308 303 302 300 300 302 302 301 298 296 295 296 295 293 293 292 291 291 290 289 288 287 286 284 283 281 284 283 283 283 283 284 283 282 282 283 283 283 285 282 282 281 281 281 280
301 302 301 302 303 303 302 300 303 304 304 303 304 304 304 304 304 304 308 303 306 308 309 310 309 311 314 315 315 313 311 314 313 314 312 309 307 308 307 307 306 304 303 303 300 300 299 297 295 294 293 295 294 293 293 291 290 289 288 287 286 287 284 285 281 283 283 284 282 283 282 282 281 282 282 282 283 282 283 282 281 280 280 280 279
298 298 301 302 301 299 300 299 301 300 302 301 302 301 300 301 302 307 304 305 305 308 307 307 308 309 310 309 311 309 311 310 308 308 309 310 309 306 305 306 306 305 303 303 301 298 297 296 295 294 293 293 292 292 290 289 288 287 286 285 285 285 283 283 282 282 282 282 281 282 281 282 281 281 282 283 283 283 283 281 280 281 281 280 280
297 297 297 296 294 295 293 291 295 296 302 301 303 302 301 301 301 305 306 306 307 304 304 306 306 305 305 305 305 307 308 308 307 306 309 308 307 305 301 301 301 301 302 301 298 298 299 297 295 293 292 293 291 288 287 287 286 286 285 284 284 284 283 282 281 281 281 283 281 282 281 281 281 281 282 282 282 282 282 281 279 279 278 280 279
293 292 291 292 290 291 290 291 293 293 296 298 301 299 298 298 298 300 301 303 303 303 303 302 304 304 306 307 307 306 305 305 305 305 304 304 305 304 303 302 301 300 300 299 296 297 297 297 295 291 290 291 288 287 287 286 285 284 284 283 283 283 283 283 282 280 281 281 281 280 280 280 280 280 281 281 281 280 280 280 279 278 277 278 279
289 291 290 292 292 292 291 293 293 294 296 298 298 298 298 297 297 297 298 303 300 299 301 300 299 302 301 303 303 303 302 302 303 304 304 302 301 301 300 301 300 300 299 297 296 295 295 295 292 291 290 291 289 288 287 286 284 283 283 283 282 282 282 281 281 281 280 280 280 281 280 281 280 279 280 281 280 280 279 279 279 278 277 279 279
293 292 290 291 292 293 297 298 298 298 297 298 299 298 297 296 298 297 294 297 298 298 297 297 295 297 298 298 299 299 299 298 298 298 298 298 298 297 295 295 294 294 295 295 295 294 294 294 293 291 290 290 289 287 286 284 284 283 283 283 282 282 281 281 281 281 280 280 279 280 280 280 280 280 281 280 280 279 279 278 278 279 279 278 277
297 296 294 293 295 295 296 298 298 297 298 298 296 296 297 296 295 293 293 295 295 295 296 296 294 294 295 296 296 296 295 295 296 296 296 296 295 294 294 295 294 293 292 291 291 292 292 291 291 290 290 289 288 287 285 284 283 282 282 282 282 282 281 280 280 280 279 279 279 279 279 279 279 279 279 279 279 278 278 278 276 277 277 278 277
299 298 296 296 296 296 295 295 296 295 293 294 293 292 291 289 289 290 292 292 293 292 292 293 293 294 293 293 293 293 295 296 296 296 296 295 295 296 295 294 293 293 292 291 290 290 289 289 289 289 288 287 286 286 286 286 284 282 281 282 282 281 280 280 280 279 279 279 279 279 279 279 279 279 278 278 278 278 278 277 275 276 276 275 276
299 298 297 297 296 297 296 294 294 293 292 292 290 289 288 288 288 289 289 290 290 290 291 291 292 291 292 291 291 292 293 295 293 293 294 296 295 295 293 292 292 292 290 289 288 288 288 287 287 286 286 285 285 286 287 287 286 285 283 282 282 281 280 279 279 279 279 278 279 279 279 279 280 280 279 279 278 278 277 276 274 274 274 273 274
298 298 298 297 297 296 295 293 291 292 291 289 288 289 289 288 288 288 288 289 289 289 290 291 291 290 291 290 290 290 292 294 292 294 295 295 294 292 292 291 290 289 289 289 288 287 286 285 284 285 285 284 284 286 287 287 287 287 286 286 285 282 280 279 279 280 279 279 280 279 280 280 280 279 279 278 278 278 277 276 275 273 272 271 270
298 297 297 297 297 295 293 291 290 290 289 289 289 288 288 288 287 287 288 288 288 288 289 290 290 290 290 290 290 289 289 291 293 293 294 294 293 292 290 290 289 289 288 288 287 286 285 284 284 285 284 283 283 284 286 287 287 287 287 287 287 287 286 282 280 279 279 279 278 280 280 280 280 279 278 278 277 277 277 276 274 273 272 272 272
296 297 297 297 296 294 291 291 290 289 289 289 289 288 288 287 287 287 288 288 288 289 289 289 289 289 290 290 289 288 288 290 293 293 293 294 293 291 290 290 289 288 287 287 286 285 284 284 283 283 283 283 283 282 281 283 286 287 287 287 286 287 287 287 286 282 282 281 280 280 280 280 279 279 279 279 279 277 276 275 274 274 274 273 273
296 295 295 295 293 292 291 290 289 289 289 288 288 288 288 288 287 288 287 287 287 287 288 288 288 289 289 289 289 289 289 289 292 292 292 293 293 292 288 288 287 287 286 285 285 284 284 284 283 282 280 280 279 280 280 280 280 281 282 281 281 283 287 287 286 285 284 282 281 281 281 280 279 279 279 281 278 276 275 274 275 274 274 273 274
295 295 294 294 292 292 291 290 289 289 288 288 288 288 288 287 287 286 287 287 287 287 287 287 288 287 288 288 289 288 288 290 291 292 292 293 293 291 287 287 286 285 285 284 284 284 284 283 283 282 280 279 280 280 280 280 279 279 278 277 279 278 279 280 280 281 282 282 281 280 280 279 279 278 279 280 278 278 277 276 276 276 275 275 274
294 293 293 292 292 291 291 290 289 289 288 288 287 287 287 287 287 286 286 286 286 286 286 286 286 286 287 287 288 288 286 289 290 291 292 292 293 288 286 286 285 285 284 284 284 284 283 283 282 281 280 279 281 284 283 280 278 276 276 275 275 276 279 282 283 283 281 280 280 280 279 279 280 278 279 279 278 278 277 274 273 271 270 268 270
292 292 292 292 292 291 291 290 289 289 288 288 287 287 287 287 286 286 286 286 286 286 286 286 286 286 286 286 287 287 286 288 290 290 291 292 291 286 286 285 285 285 284 284 284 283 283 282 281 281 281 280 282 285 285 283 278 277 277 277 277 278 279 280 283 284 284 283 283 283 283 283 283 283 282 282 280 278 275 273 273 270 269 267 268
291 291 292 291 291 291 291 291 289 288 287 287 287 286 287 286 286 286 286 286 286 285 286 286 286 286 286 286 286 286 286 286 288 290 290 291 289 286 286 285 285 285 284 282 283 282 282 282 282 281 280 280 283 286 286 283 278 278 278 278 277 278 279 280 281 282 284 283 283 283 283 283 283 283 283 284 283 281 275 273 271 270 270 269 268
290 291 292 291 291 291 291 290 289 288 288 287 287 287 286 286 286 286 286 286 286 286 286 286 285 285 285 286 285 286 286 285 288 289 290 290 289 286 286 285 284 284 283 282 282 281 281 282 282 281 281 281 284 286 287 283 279 279 279 278 278 278 279 279 279 279 280 279 280 280 279 280 279 278 279 282 282 282 278 276 272 271 270 268 267
290 291 291 291 291 290 290 289 289 288 288 287 287 287 286 286 286 286 286 286 285 285 285 286 285 285 285 285 285 285 285 285 286 289 289 290 290 286 285 285 284 284 283 282 281 281 281 281 282 284 284 284 285 287 287 286 281 281 280 279 279 279 280 279 278 278 278 278 278 276 276 275 275 276 276 276 278 279 279 277 274 272 271 269 268
288 290 290 290 290 290 290 289 288 288 288 287 287 286 286 286 286 286 285 285 285 285 285 285 285 285 285 285 285 285 285 285 285 288 289 290 290 288 285 285 284 284 282 281 281 281 280 280 280 283 285 285 285 287 287 287 285 281 281 280 280 280 280 278 278 279 277 277 276 274 273 273 273 274 274 274 274 275 277 277 275 274 272 269 267
288 289 290 290 290 289 288 288 288 287 287 287 286 286 286 286 286 285 286 285 285 285 285 285 284 284 284 284 284 284 284 285 285 286 288 289 290 290 286 285 284 283 281 280 280 280 280 280 280 281 285 286 286 286 287 288 287 282 280 283 283 283 279 277 277 277 275 275 273 272 271 271 271 271 272 273 273 274 275 276 276 274 274 272 271
288 290 290 289 288 288 287 287 287 287 287 287 286 286 285 285 285 285 285 285 285 284 284 284 284 284 284 284 285 284 284 285 285 285 286 288 289 290 289 286 286 282 281 279 280 280 280 279 279 281 283 285 286 286 287 288 287 284 284 284 284 283 280 275 275 275 274 273 272 271 271 271 271 271 272 272 274 274 274 274 275 275 273 273 273
288 289 288 288 287 287 287 287 287 287 286 286 286 285 285 285 285 285 285 285 284 283 283 283 283 283 282 283 283 283 284 283 283 284 284 287 289 289 289 289 287 281 279 279 279 278 278 277 277 282 283 284 286 287 287 287 286 287 286 285 284 283 276 275 274 274 273 273 272 272 272 272 272 272 273 274 274 274 274 274 273 273 272 272 272
288 288 288 287 287 287 287 286 286 286 286 286 286 285 285 285 284 284 284 284 284 283 283 283 282 283 282 281 281 281 280 280 279 282 284 285 287 288 289 289 289 287 279 276 277 277 280 282 282 283 283 284 285 286 286 287 287 287 286 285 283 279 275 275 274 273 272 272 273 273 273 273 274 274 275 275 274 273 272 271 272 271 271 271 271
286 286 286 286 286 286 286 286 286 286 286 286 286 286 285 285 284 283 284 283 283 283 283 282 282 281 280 278 277 277 276 277 276 277 281 282 283 286 288 288 286 286 283 279 281 282 283 284 284 284 284 283 282 281 281 283 285 286 286 284 282 278 276 275 274 273 273 273 273 273 274 274 274 274 274 273 272 271 271 270 270 270 270 270 270
284 283 284 284 284 285 285 285 285 285 285 286 285 285 285 285 284 283 283 283 283 283 283 282 281 280 279 276 275 275 274 274 275 275 275 276 277 278 279 280 284 284 282 278 280 278 282 282 281 283 282 283 283 282 282 283 283 284 284 283 281 278 276 276 275 274 274 273 273 273 273 273 273 272 271 271 271 271 271 270 270 270 270 271 270
282 281 280 281 281 282 282 280 282 283 283 284 283 282 281 283 283 283 282 282 282 281 281 279 278 276 274 273 273 272 272 272 272 274 274 275 274 275 275 276 276 277 279 277 276 275 275 281 280 278 277 277 278 277 279 280 280 280 281 281 279 276 276 276 276 274 273 273 272 272 272 272 271 271 271 271 271 270 271 270 270 270 271 270 269
280 278 278 279 278 277 279 279 279 280 279 279 277 278 280 278 278 276 276 276 278 277 275 274 274 273 274 273 273 272 272 272 276 280 278 281 278 275 275 277 277 276 280 282 276 274 274 274 273 273 273 275 275 276 277 277 276 277 278 277 275 274 274 274 274 274 273 272 271 271 271 271 271 271 270 270 270 270 271 270 271 270 270 271 268
278 278 278 278 277 277 277 276 276 277 277 277 276 274 279 280 279 276 273 279 282 283 282 274 273 272 272 272 274 275 275 275 282 284 285 285 285 284 283 283 283 280 281 285 280 273 273 272 273 273 274 274 275 275 276 276 276 276 276 277 275 273 273 273 274 273 273 272 272 271 271 270 270 270 269 269 269 270 270 271 269 271 269 269 269
278 278 278 277 277 277 277 276 275 276 276 275 275 275 273 275 283 283 281 281 282 283 283 284 284 281 276 273 274 282 283 284 285 285 285 286 286 286 286 285 285 285 285 280 275 274 273 273 273 273 274 274 275 275 275 275 275 276 276 275 274 273 273 273 273 273 272 272 271 271 270 270 270 270 269 269 269 269 270 271 270 269 269 269 269
278 278 277 277 277 276 276 276 275 275 274 273 275 273 273 273 274 281 283 282 283 283 283 283 283 284 284 281 277 273 279 282 283 283 284 285 285 286 286 286 286 286 286 285 276 273 272 273 272 273 273 273 274 274 274 274 275 275 275 274 274 274 273 273 273 273 272 271 271 270 270 270 270 269 270 269 270 269 269 268 269 268 269 269 269
278 277 276 277 276 276 276 276 275 275 275 274 273 273 273 272 274 272 275 281 283 283 283 283 283 283 284 283 284 283 283 284 284 284 283 283 284 284 285 285 285 286 286 281 276 275 272 272 273 273 273 273 273 274 274 275 274 274 274 274 274 274 273 274 274 272 271 271 271 270 270 270 270 269 269 269 269 268 269 268 269 269 269 268 268
277 277 277 276 276 276 275 275 275 274 274 273 273 273 272 272 270 270 269 271 272 275 279 282 282 283 283 283 283 283 283 283 283 283 283 283 283 283 283 282 284 284 283 278 277 276 274 273 273 273 273 274 274 274 274 274 274 274 274 274 274 274 273 272 271 271 271 271 270 270 270 270 270 269 269 269 269 269 269 269 269 268 268 268 268
276 274 274 275 276 275 275 274 274 274 273 273 272 272 273 271 272 271 270 270 270 270 269 271 277 280 277 280 282 283 283 283 283 283 283 283 283 283 283 276 275 275 276 275 276 276 275 275 274 274 274 274 274 274 274 274 274 274 274 274 273 273 272 271 270 270 270 270 270 269 269 269 269 269 269 268 268 268 268 268 268 268 268 268 268
275 275 275 274 274 274 274 274 273 274 273 272 272 271 271 271 271 270 270 270 269 269 269 269 269 274 278 279 280 281 282 282 282 282 282 282 283 283 275 272 271 271 272 273 273 275 275 276 276 276 275 274 274 274 275 275 275 275 274 274 273 273 272 271 271 270 270 269 269 269 269 269 269 269 269 269 268 268 269 268 268 268 269 268 268
274 274 273 273 273 273 272 272 272 272 273 271 271 270 270 270 269 267 268 267 268 268 268 267 267 268 273 272 275 278 280 281 281 281 281 281 281 278 273 272 272 272 272 272 272 273 273 274 274 275 275 275 275 276 276 275 275 275 275 275 274 273 272 272 271 269 268 268 268 268 268 268 268 268 268 267 268 268 269 269 268 268 268 268 268
272 273 272 272 271 272 271 271 271 273 271 270 269 269 269 268 268 269 268 268 269 268 267 266 271 267 268 268 273 272 273 277 278 277 277 278 277 275 274 272 272 271 272 272 272 272 273 273 273 274 275 275 275 276 276 276 276 275 275 274 273 273 273 273 271 270 268 268 267 267 267 267 268 267 267 267 267 267 268 268 268 267 268 268 268
271 273 273 273 273 271 271 271 270 270 269 268 268 269 269 267 267 266 266 265 265 266 267 265 265 267 267 267 269 272 273 272 272 272 273 273 273 272 270 270 270 271 272 272 273 274 274 274 275 275 275 276 276 277 277 277 277 276 276 275 274 273 272 272 271 270 269 268 268 268 268 268 268 268 268 267 267 268 268 268 268 268 267 267 268
271 271 272 273 271 271 270 270 269 269 268 268 267 267 267 267 266 266 265 265 266 266 266 267 267 267 268 269 271 273 271 271 270 271 271 271 270 269 267 268 269 269 270 271 272 272 274 276 277 277 277 277 277 277 277 277 277 276 276 275 274 273 273 271 270 270 269 269 268 268 268 268 268 268 268 268 267 268 268 267 267 268 267 267 268
270 270 270 271 271 270 269 269 268 267 266 267 266 266 266 267 267 267 265 266 267 267 267 267 268 269 270 273 274 274 269 268 268 267 268 268 268 267 267 267 267 268 268 269 270 270 271 272 273 274 274 275 276 276 276 276 276 275 275 273 273 272 272 271 271 270 270 269 269 268 268 268 268 268 267 267 268 268 267 268 267 267 267 267 267
270 269 269 269 269 268 268 267 266 268 267 267 266 265 266 266 266 266 267 267 267 268 267 268 269 268 270 272 272 272 270 267 266 266 265 265 265 266 267 266 266 266 267 267 268 268 269 269 270 270 270 271 272 273 274 274 274 274 274 273 273 272 271 271 270 270 270 269 269 268 268 268 268 268 268 268 267 267 267 267 267 267 267 267 267
268 268 267 267 267 266 267 266 265 265 265 265 265 267 267 266 266 267 266 267 266 266 265 265 265 266 268 270 270 270 267 265 266 265 264 264 264 265 265 265 265 265 265 266 267 266 267 267 267 268 268 269 269 270 271 272 273 273 273 273 272 272 271 271 270 269 269 269 269 268 268 268 268 267 267 267 267 266 266 266 266 266 266 266 266
267 267 267 266 266 265 265 265 265 265 265 266 266 266 266 266 265 264 264 264 265 265 264 265 266 266 266 266 267 265 263 262 261 261 262 264 263 263 263 263 263 264 264 265 265 265 265 266 266 267 267 267 268 268 270 271 271 271 271 271 271 270 270 270 270 269 269 268 268 268 268 267 267 267 266 266 266 265 265 265 265 265 265 266 266
266 266 266 265 264 264 264 264 264 265 265 265 264 264 265 264 264 264 264 263 265 265 266 266 265 264 263 261 261 260 260 260 262 262 262 262 261 261 261 261 262 263 264 264 264 263 264 264 264 264 265 265 266 266 267 268 268 269 269 269 269 269 270 270 270 270 270 268 268 267 267 267 266 266 266 266 265 265 265 265 265 265 265 265 265
265 265 265 265 265 265 264 264 265 264 264 265 265 265 265 265 264 264 264 264 264 263 263 262 261 261 260 259 260 261 259 259 259 260 261 260 260 260 260 261 261 262 262 262 262 262 263 263 263 263 263 263 263 263 264 264 265 266 266 267 267 268 269 270 270 269 269 269 268 268 267 267 266 266 266 266 265 265 265 265 265 265 265 265 265
265 265 265 265 265 265 265 265 265 265 265 265 265 265 264 263 263 263 263 262 261 261 259 258 258 257 258 258 258 258 259 259 259 259 258 258 258 260 260 261 262 261 261 261 261 262 261 262 262 262 262 262 262 262 262 262 262 262 263 264 265 266 266 267 267 268 268 268 268 267 267 267 266 266 265 265 265 264 264 264 264 264 264 264 264
265 265 265 265 265 265 265 265 264 265 264 264 264 264 263 262 260 260 259 258 258 258 257 256 256 256 258 257 258 258 259 258 258 259 259 259 259 260 261 261 262 261 261 261 260 261 261 261 261 261 261 262 262 262 262 262 262 261 261 261 262 263 264 264 265 266 266 267 267 267 267 266 266 266 265 265 264 264 263 263 264 264 264 264 264
264 264 264 264 264 264 263 263 263 262 262 262 261 261 260 259 258 257 257 257 257 256 255 255 255 256 256 257 258 258 258 259 257 257 258 259 259 259 259 259 259 259 259 260 260 261 261 261 262 262 262 262 262 262 261 261 261 261 260 260 262 263 264 265 265 265 265 265 266 266 266 266 266 265 265 264 264 264 263 263 263 263 263 263 263
263 263 263 262 262 262 262 261 261 260 260 260 259 258 258 258 257 257 256 256 255 255 254 255 255 254 255 256 257 257 257 257 257 256 257 257 257 257 257 257 257 257 258 258 259 260 261 261 262 261 261 261 261 261 260 260 260 260 259 260 263 264 264 264 265 265 265 265 265 265 265 265 265 265 265 264 264 263 263 262 262 262 262 262 262
261 261 261 261 261 260 260 259 259 259 259 258 257 257 257 256 256 255 255 254 254 254 255 253 252 254 255 254 256 256 256 255 256 256 256 256 256 256 256 257 257 257 257 258 258 259 260 260 260 260 259 259 259 259 259 259 259 259 261 263 264 264 264 264 264 263 264 264 264 264 264 264 264 264 264 263 263 262 262 262 262 261 261 261 261
Wind_Speed
3 4 3 4 4 4 3 2 1 1 1 1 1 1 1 1 1 2 1 2 3 4 5 6 6 7 7 7 6 6 7 8 6 6 8 11 9 9 8 9 10 7 6 5 4 6 8 8 6 3 3 5 5 6 7 7 6 5 5 6 6 5 6 5 7 3 1 0 2 3 2 4 1 1 3 1 0 1 3 1 2 3 4 3 3
4 5 4 4 4 2 1 2 3 3 2 3 2 2 1 1 0 0 0 1 1 3 3 4 4 5 6 7 8 9 6 5 6 9 9 6 5 4 6 9 8 8 9 10 8 7 7 7 6 6 7 7 8 8 8 7 6 6 5 6 6 6 4 5 4 6 5 0 2 1 1 0 3 0 4 2 1 0 1 2 3 2 3 4 3
2 2 2 1 1 2 2 2 2 1 1 2 2 2 2 2 0 1 1 2 1 2 3 3 3 4 4 4 4 4 5 6 5 5 5 7 8 8 8 9 11 11 11 11 9 6 6 8 9 8 5 6 6 5 3 5 4 5 4 4 6 6 4 4 5 4 8 5 3 4 3 1 3 2 1 2 2 2 0 2 2 3 3 3 3
2 2 2 2 2 2 1 1 0 1 1 1 1 1 2 1 1 1 1 1 1 1 1 3 4 4 4 4 4 4 5 7 7 6 8 9 8 7 4 4 4 5 8 8 9 10 11 9 8 9 8 8 5 3 3 5 6 6 6 5 5 6 4 3 3 5 4 7 4 6 3 4 1 0 2 2 3 2 1 0 1 2 3 3 3
3 3 3 2 1 1 1 1 1 1 1 0 0 2 3 3 2 2 1 1 1 2 3 2 2 3 4 5 6 6 6 6 6 7 6 6 8 9 9 9 8 8 8 9 10 10 10 11 8 7 7 7 5 5 7 8 7 7 7 6 6 5 3 4 4 4 6 7 5 2 2 2 1 1 4 5 1 1 1 2 1 2 2 2 3
3 3 3 4 4 3 2 2 1 1 0 1 1 1 2 3 2 1 1 1 1 0 1 2 3 5 5 5 5 5 4 4 5 7 7 6 5 5 6 7 9 10 9 8 8 9 10 10 8 10 10 11 11 9 8 9 7 7 7 6 5 5 5 4 4 4 5 5 6 4 1 4 1 1 2 4 4 2 1 2 2 2 1 4 4
3 5 4 5 4 3 1 0 0 0 1 1 2 3 4 2 1 2 1 1 1 2 2 3 2 1 3 2 3 3 3 3 4 4 4 4 4 4 4 4 4 4 5 7 9 9 9 8 9 10 11 10 10 10 10 9 9 10 9 8 6 7 6 6 5 5 5 5 3 3 3 2 3 3 1 3 3 2 4 1 2 0 2 2 5
5 5 4 3 3 2 2 1 1 2 1 2 3 3 2 1 0 0 0 1 1 1 1 2 1 1 1 1 2 2 3 4 4 4 4 4 5 5 5 6 6 6 5 3 3 4 5 6 7 8 9 9 9 9 9 10 8 8 6 7 7 7 7 6 5 6 5 5 6 5 4 4 1 0 3 3 2 0 1 3 3 3 2 1 3
6 5 4 4 3 4 3 4 4 4 4 3 2 2 2 1 1 1 0 0 0 0 0 1 1 1 1 2 2 3 4 5 5 5 5 5 5 6 6 7 7 7 6 6 5 6 5 5 6 6 7 8 9 8 9 8 9 10 7 8 8 8 7 6 6 6 5 6 5 3 4 5 5 5 5 6 7 6 4 3 1 1 2 4 3
6 6 6 5 5 5 5 4 4 3 3 3 3 3 2 2 2 2 1 1 1 1 1 1 1 2 2 2 1 2 3 4 5 7 7 5 5 5 4 5 6 6 6 5 4 4 4 5 4 8 9 9 10 10 11 11 10 8 11 11 10 9 8 8 7 7 7 7 7 6 6 7 7 8 7 4 3 5 4 2 2 1 1 3 3
7 7 6 5 5 5 5 4 4 4 3 3 3 3 3 3 2 2 2 1 1 0 1 1 1 1 1 2 3 3 3 3 4 5 7 7 4 4 5 4 4 4 5 6 7 5 4 3 3 6 7 8 8 12 12 11 11 8 8 11 11 13 11 8 8 8 8 8 5 5 7 8 7 6 6 5 4 6 4 3 2 1 1 1 1
8 7 6 6 6 6 5 5 4 4 3 3 3 3 3 3 3 2 2 1 1 1 0 0 0 0 1 1 2 3 3 4 4 5 6 6 4 3 2 3 3 3 4 4 3 4 4 3 2 3 5 5 5 6 8 10 10 8 9 10 8 6 6 9 9 7 7 7 7 8 6 8 5 6 5 6 5 3 3 4 4 4 4 4 3
7 7 6 7 6 6 5 5 4 4 4 4 4 4 4 3 3 3 2 2 2 1 0 0 0 0 0 1 2 2 2 3 3 3 4 3 3 2 1 1 2 3 2 2 2 3 3 4 4 2 2 5 5 4 4 4 7 8 9 10 10 9 9 5 2 6 7 7 8 7 9 5 5 6 6 6 6 6 5 4 5 5 4 4 5
7 7 7 6 6 6 6 5 5 5 5 5 5 4 4 4 3 3 3 3 2 2 1 0 0 0 0 0 1 1 1 2 1 2 2 3 3 3 1 0 0 0 0 0 1 2 4 5 6 5 2 3 3 4 4 4 4 4 5 5 5 6 8 8 5 5 5 6 6 7 4 4 5 4 5 6 7 6 6 6 5 5 6 6 3
8 7 7 6 6 7 7 6 6 6 5 5 5 4 4 3 3 2 2 2 2 2 2 1 0 0 0 0 1 0 0 1 0 1 3 4 4 5 2 2 1 1 1 1 2 3 5 4 4 5 4 4 5 6 7 7 6 6 5 5 5 4 4 3 3 3 3 3 3 2 3 2 4 6 6 5 6 6 6 5 6 5 2 1 3
8 7 8 7 8 7 7 7 6 6 6 5 4 4 3 3 3 3 2 2 2 2 2 2 2 1 1 1 1 0 0 1 2 2 4 5 7 5 4 4 4 4 4 5 4 5 6 6 6 6 6 5 6 10 9 7 7 7 7 5 4 3 4 2 3 4 3 3 3 4 4 5 7 7 7 6 5 5 4 4 3 3 2 2 5
8 8 8 8 8 8 7 8 7 7 5 5 4 4 4 3 3 3 4 3 3 2 2 1 1 1 1 0 0 0 1 1 1 2 2 5 5 3 3 3 4 5 5 5 6 6 6 6 6 6 6 7 8 12 12 10 7 8 8 8 6 5 6 4 7 9 9 8 8 9 11 11 11 12 12 13 9 7 5 4 7 5 5 5 4
8 9 9 8 8 8 7 7 8 6 6 5 5 4 3 3 3 3 4 4 3 2 2 2 2 2 2 1 0 0 1 0 2 2 3 5 5 4 3 3 3 2 2 4 4 5 6 9 8 8 8 8 11 15 15 11 9 9 9 9 9 9 7 5 5 7 11 11 12 12 12 11 11 11 12 13 14 11 8 9 5 7 7 6 6
10 10 9 8 7 7 7 7 6 6 6 5 5 6 5 5 3 3 3 4 3 3 3 4 3 3 3 3 4 3 2 2 5 5 6 6 6 4 4 4 4 4 4 4 4 5 5 7 11 10 9 10 16 17 18 14 10 10 11 9 10 11 9 9 9 8 7 7 7 7 6 7 5 4 5 12 14 13 9 7 5 7 7 7 5
7 6 6 7 6 7 7 7 6 7 6 5 4 5 4 4 4 5 4 4 4 3 3 3 4 3 3 3 3 3 2 2 3 6 6 7 8 5 4 5 6 6 5 6 5 4 6 6 9 14 15 16 17 19 20 19 13 9 8 9 10 12 7 8 8 8 8 9 7 6 6 3 2 2 3 5 7 9 8 7 8 7 7 6 6
7 7 7 7 7 7 7 6 7 6 6 6 5 5 4 5 5 5 5 4 3 3 2 2 2 2 1 1 1 1 1 1 2 5 6 7 9 8 4 5 4 4 4 4 5 5 5 5 5 10 15 16 17 18 19 19 15 9 9 10 9 2 8 7 9 9 7 6 6 5 4 3 3 3 4 5 6 6 6 6 7 8 7 7 7
7 8 8 8 7 6 6 6 6 6 5 6 6 5 3 4 5 5 4 4 4 3 2 2 1 1 1 1 2 2 3 5 3 5 7 7 8 9 5 5 4 4 3 3 3 4 5 5 5 7 12 14 15 16 17 17 17 9 9 9 5 10 7 5 6 6 6 5 5 5 5 5 5 5 6 6 7 7 6 6 6 7 7 7 8
8 8 8 7 7 7 7 7 7 6 6 7 8 6 4 4 4 5 6 5 5 5 3 3 2 1 1 2 2 2 3 3 5 4 6 7 8 9 10 6 7 5 5 6 7 6 4 5 4 7 10 12 14 16 16 18 14 10 13 12 10 10 7 4 5 5 5 5 5 7 7 7 6 7 7 8 7 7 7 6 6 6 5 5 5
9 9 9 8 8 8 8 7 7 6 7 7 7 7 5 5 4 5 5 6 5 4 3 3 2 2 2 2 2 2 2 2 4 5 4 7 8 9 10 9 8 5 5 6 4 4 4 5 5 9 12 12 13 15 16 15 11 16 14 14 12 8 5 5 4 5 5 6 7 8 8 7 6 7 8 8 7 7 6 5 6 5 5 4 4
10 10 10 9 9 7 7 6 7 6 7 8 8 7 6 6 5 4 5 5 5 4 4 3 3 2 1 2 3 2 2 2 2 4 5 5 7 8 8 8 9 7 4 3 3 4 6 8 9 12 12 13 14 14 12 14 16 14 13 12 10 5 6 6 6 6 6 8 9 7 7 9 9 7 3 4 4 4 4 3 3 3 2 3 4
11 10 9 8 8 8 9 7 7 7 7 6 6 6 6 5 4 4 4 4 4 4 4 3 2 1 2 2 3 3 3 2 3 2 3 4 4 6 7 7 8 8 6 5 6 7 8 9 10 11 11 10 8 6 5 6 10 12 11 11 7 6 6 6 6 8 10 9 8 9 7 2 2 2 2 3 4 5 5 5 4 4 3 4 4
10 9 10 9 8 8 9 7 7 6 5 5 5 5 4 4 4 4 3 4 4 4 4 4 3 2 3 3 2 2 3 3 3 3 2 1 2 2 3 4 5 5 5 3 4 4 5 6 5 6 6 8 9 7 6 6 6 7 7 7 6 6 6 7 7 8 7 6 6 4 2 1 2 3 4 5 5 3 2 3 3 5 4 4 5
10 10 9 8 8 8 7 8 8 7 6 6 6 5 4 4 4 3 4 3 4 3 3 3 4 3 3 2 1 2 3 4 3 4 4 3 3 2 2 3 4 5 5 5 5 4 3 3 3 2 2 2 3 4 5 5 5 4 5 5 5 4 5 4 4 4 4 3 2 1 1 2 4 4 5 5 4 5 4 4 4 4 5 4 5
9 9 8 8 7 6 7 7 7 7 6 6 5 4 7 5 3 2 1 2 5 5 5 4 4 4 4 4 3 3 3 3 5 5 5 6 5 4 4 5 4 4 6 6 2 1 1 1 2 3 3 5 4 5 5 5 5 6 5 5 4 4 5 6 8 8 6 5 6 6 6 4 5 4 6 4 5 5 5 5 6 6 5 5 8
10 9 8 8 7 7 7 7 6 7 7 7 6 2 2 4 5 5 2 3 5 5 6 4 4 4 4 4 4 4 4 4 6 6 6 7 8 9 8 7 7 6 6 9 6 3 3 4 5 5 5 5 6 6 6 6 6 7 6 7 6 6 7 7 8 8 7 7 7 7 7 6 6 6 8 6 6 6 7 8 6 6 6 8 8
9 8 8 8 8 8 8 7 7 7 6 7 6 6 4 1 1 3 4 4 4 4 4 4 5 5 3 1 3 3 4 5 5 4 5 5 7 8 9 9 10 9 9 4 2 4 5 5 5 5 6 5 6 6 6 6 7 7 7 6 6 7 7 8 8 7 7 7 7 7 6 7 8 7 10 9 7 7 5 6 6 7 8 8 8
10 9 8 8 8 7 7 7 7 7 6 6 7 7 7 6 3 4 4 2 2 2 2 2 2 1 1 1 1 2 3 3 6 7 7 6 5 6 7 8 9 9 10 9 5 5 5 5 5 6 5 6 6 6 6 6 6 7 6 6 7 7 8 9 8 6 6 6 7 7 7 7 7 7 7 7 7 6 7 6 8 7 7 7 8
11 9 9 9 8 8 8 8 7 7 7 7 6 6 7 7 8 3 3 5 5 5 5 5 4 4 4 4 4 3 4 5 6 6 7 8 7 7 7 9 9 9 9 6 4 5 5 5 6 6 5 6 6 6 6 6 6 6 7 7 8 7 8 8 5 6 7 8 7 8 7 7 7 7 8 8 8 8 8 8 8 7 7 8 8
10 10 10 10 10 8 8 7 7 7 6 6 7 7 6 6 5 5 4 3 3 4 4 7 8 7 5 5 4 5 5 5 6 6 6 6 7 7 8 5 8 10 8 6 5 6 5 5 6 6 6 6 6 6 6 6 6 7 7 7 8 7 6 4 6 8 7 8 8 8 8 8 8 8 9 8 8 8 8 8 8 8 9 10 9
9 9 12 9 8 8 8 7 7 7 7 7 7 6 6 5 4 4 4 4 3 2 1 4 6 7 4 4 5 6 6 6 6 6 6 6 6 6 6 3 3 3 4 3 3 5 5 6 6 6 5 6 6 6 7 7 7 7 7 8 7 7 6 6 7 7 7 8 8 8 8 9 9 8 8 9 9 9 10 9 9 10 10 9 8
9 8 8 9 8 7 7 7 7 7 7 7 6 6 6 5 6 4 4 3 4 2 1 0 1 5 5 6 7 7 6 6 6 7 7 7 7 6 2 3 2 4 4 4 4 5 5 5 5 6 5 6 6 6 7 7 7 7 7 7 8 7 7 7 7 7 8 8 8 8 7 8 8 9 8 9 11 11 10 10 9 9 9 8 7
9 8 8 7 7 7 7 7 7 7 6 6 6 6 5 5 5 3 4 3 2 1 3 0 2 4 4 3 4 6 7 6 5 6 7 8 9 4 1 2 4 5 5 5 4 5 6 6 6 6 6 6 7 7 7 7 7 7 7 8 7 7 7 7 8 7 7 8 8 8 8 9 8 8 9 10 10 9 9 9 9 9 8 9 7
7 8 8 7 7 8 8 7 7 8 7 6 5 6 4 4 3 2 3 1 1 1 1 1 1 1 2 3 3 2 3 3 5 5 5 5 5 4 4 3 3 4 5 5 5 5 6 6 6 6 7 6 7 7 7 7 7 7 8 7 7 8 9 9 8 7 8 8 8 8 8 8 8 8 8 9 10 10 9 9 8 8 8 9 8
7 9 11 11 7 7 7 7 7 7 7 6 5 6 6 5 4 3 2 2 2 1 2 1 2 3 4 3 5 4 4 4 5 5 4 4 3 3 2 3 3 5 5 5 5 5 6 6 6 6 6 6 7 7 7 7 7 7 7 8 8 7 7 7 7 7 7 8 7 7 7 8 8 8 8 9 10 10 9 9 9 9 9 9 9
8 7 8 10 8 7 7 7 7 7 7 7 6 6 4 4 4 3 3 3 2 1 1 2 2 2 3 3 4 5 5 5 5 5 5 5 5 4 4 4 5 5 5 5 5 5 6 6 6 6 6 6 6 6 6 7 7 7 6 6 7 8 8 7 7 7 7 7 7 7 8 8 8 8 8 9 9 9 10 10 10 9 9 8 8
7 7 7 7 8 8 7 7 7 7 6 6 5 6 5 4 3 4 3 2 1 1 1 3 3 4 4 6 9 8 4 5 5 5 5 5 5 5 5 4 5 5 6 5 6 6 6 6 6 7 7 7 7 7 7 7 7 7 7 6 7 8 7 7 7 7 7 7 7 7 7 8 7 8 9 10 10 10 9 8 8 8 8 8 8
8 8 8 7 7 7 7 7 7 7 6 6 6 4 5 4 3 3 3 2 3 3 2 2 3 3 5 9 8 9 5 4 3 5 4 4 5 5 5 5 5 5 6 6 6 6 6 6 6 6 6 6 7 7 8 8 7 7 7 7 8 8 8 7 7 7 7 7 7 8 7 8 8 9 10 8 7 8 8 8 8 8 8 8 8
8 8 7 7 7 6 7 7 6 6 6 5 4 4 4 4 3 4 2 3 1 2 1 1 1 2 3 6 7 7 4 5 4 3 3 4 4 4 5 5 5 6 5 6 6 6 6 6 6 6 6 6 6 7 7 8 8 8 8 8 8 8 8 7 6 6 6 7 8 8 8 8 8 8 8 8 8 7 8 8 8 8 8 8 7
8 8 8 7 7 6 6 6 6 5 5 5 4 5 4 3 3 3 3 2 1 2 1 1 2 3 3 4 4 4 4 4 4 4 3 4 4 4 5 5 6 6 6 6 6 6 6 6 6 6 6 6 6 6 7 7 7 8 9 9 8 8 8 7 7 6 6 7 7 7 7 7 8 7 7 7 7 8 8 8 8 8 8 8 7
7 7 7 7 6 6 5 4 4 5 6 6 4 5 5 3 3 3 3 2 3 3 3 3 2 3 4 4 5 4 5 4 5 5 5 4 4 5 4 5 5 5 5 5 5 5 5 6 6 6 6 6 6 6 6 6 7 7 8 9 10 10 9 8 7 7 6 7 7 7 7 7 7 7 7 7 8 8 8 8 8 8 8 8 8
6 6 6 6 6 6 5 5 5 4 4 4 4 4 4 3 3 3 3 3 3 3 3 3 3 3 4 4 4 6 4 4 4 4 5 5 4 5 4 5 5 5 5 5 6 5 6 6 6 6 6 6 6 6 6 6 6 6 7 8 9 10 10 9 7 6 6 6 7 7 7 7 7 7 8 8 7 8 8 8 8 8 9 9 9
5 5 5 5 5 5 5 5 4 4 4 4 4 4 3 3 3 3 5 5 4 5 4 4 4 5 4 4 4 4 4 3 4 4 4 4 4 5 5 4 5 5 5 5 5 6 6 5 6 6 7 7 7 7 6 6 6 6 5 6 7 9 8 8 8 8 7 7 7 7 7 7 7 6 8 8 7 8 8 8 8 9 9 8 8
4 4 4 4 5 5 4 4 4 4 4 4 3 4 4 4 4 4 5 4 3 4 4 4 5 4 4 3 3 3 4 4 4 5 4 4 4 4 4 5 5 5 5 5 5 6 6 5 6 6 6 7 7 7 7 7 7 7 6 6 6 8 10 11 9 8 7 7 7 7 8 8 7 7 6 7 8 7 8 8 7 7 7 7 6
4 4 4 4 4 3 3 3 3 3 3 3 3 4 5 4 3 3 3 2 2 3 2 2 2 2 2 3 3 3 4 5 4 4 4 4 4 4 5 5 5 5 5 5 6 6 6 6 6 6 6 6 7 7 7 7 8 7 7 6 9 16 16 16 11 8 10 8 7 7 7 8 8 7 7 7 8 8 8 7 7 7 6 6 6
4 4 4 4 3 3 3 3 4 4 4 4 4 4 3 3 2 2 2 2 2 1 2 1 1 2 2 2 4 4 3 3 5 4 5 4 5 5 5 5 5 5 5 5 6 6 6 6 6 6 7 7 7 7 7 7 8 8 7 8 15 17 15 15 15 15 11 7 7 7 7 7 7 7 6 7 7 8 8 7 7 6 6 7 7
4 4 3 3 3 3 4 4 4 4 3 3 4 3 2 2 2 1 1 1 1 1 1 1 1 1 2 3 4 3 4 4 4 4 5 5 5 5 5 5 6 5 5 5 5 5 6 6 6 7 7 7 7 7 7 8 7 8 13 18 19 17 15 13 9 9 12 10 7 7 7 8 7 7 6 6 6 7 7 7 7 6 6 6 6
Wind_Direction
196 211 189 193 177 185 178 142 119 67 68 30 237 269 274 189 186 208 165 205 201 199 198 199 196 196 193 196 198 211 206 212 228 255 236 218 206 200 197 195 191 179 163 181 181 179 184 182 181 174 170 165 175 173 180 179 171 180 169 158 163 173 160 146 157 177 357 65 124 163 173 131 110 134 121 107 62 27 53 26 347 330 320 310 315
181 198 195 171 165 142 95 56 58 50 47 33 38 11 350 359 225 74 139 258 164 190 204 207 199 196 202 203 198 198 208 235 229 218 215 237 244 228 199 189 182 181 184 187 186 184 164 154 164 178 193 198 188 194 185 170 172 167 176 167 164 181 199 137 151 146 174 252 68 71 106 69 148 339 147 146 266 28 359 343 328 319 305 310 336
181 129 119 104 80 66 59 36 43 55 42 15 357 339 316 297 269 256 225 239 220 186 206 203 203 200 204 216 224 233 224 220 213 217 228 218 204 193 191 194 197 195 194 190 176 159 162 180 190 187 183 196 204 202 162 159 140 157 172 169 172 187 191 136 128 151 159 196 191 175 185 166 149 195 168 156 159 108 333 300 314 339 334 319 322
114 95 82 66 59 67 57 30 42 5 279 296 336 331 328 328 353 7 314 327 288 257 227 242 246 244 248 253 240 223 215 222 222 222 220 210 210 211 209 228 228 217 206 177 167 178 189 185 197 188 185 197 182 146 137 145 161 169 176 188 172 177 169 127 118 135 163 156 219 185 200 152 246 71 123 114 119 140 173 231 50 4 326 330 338
92 90 107 104 68 91 74 73 81 352 280 333 14 20 13 2 17 22 9 320 312 332 312 333 301 260 233 229 229 227 228 221 220 223 226 220 212 201 195 194 189 185 189 191 188 185 185 198 191 172 168 174 160 173 180 182 179 170 180 177 172 163 140 136 130 113 144 174 178 238 164 167 168 144 144 147 109 54 27 86 50 10 341 330 328
118 123 136 147 162 156 156 112 92 103 114 68 45 29 11 24 11 37 63 308 300 301 242 235 205 222 224 229 227 234 233 230 228 225 222 219 220 218 207 199 195 193 195 195 189 187 189 194 179 178 179 187 192 187 180 184 176 181 173 169 161 152 145 133 129 127 145 164 163 172 198 167 128 178 184 163 160 185 296 332 7 23 35 339 318
158 159 166 165 170 169 139 107 71 55 52 13 351 311 292 289 351 356 44 81 170 236 247 256 280 241 267 264 244 240 238 226 233 237 228 207 205 204 199 207 217 218 211 201 195 190 192 189 184 184 190 195 188 186 184 182 181 187 176 165 159 155 158 160 152 152 162 158 185 183 177 236 162 187 140 109 106 155 181 56 316 321 34 302 300
183 182 168 169 172 173 164 176 221 266 252 229 216 214 227 255 302 139 142 167 198 241 260 253 272 188 258 228 230 205 208 213 218 217 209 202 195 200 199 201 197 197 197 203 213 217 203 191 188 192 196 197 193 191 182 186 176 172 165 156 161 159 164 160 158 167 172 185 189 186 187 193 246 77 99 118 119 293 148 156 204 241 243 232 247
183 179 173 184 185 179 177 198 190 181 171 155 138 138 133 125 99 80 76 45 48 4 159 185 204 220 222 208 206 193 200 217 212 204 203 205 197 200 198 196 193 193 194 197 195 197 200 195 194 197 201 200 194 181 188 186 173 169 173 165 165 165 157 165 171 170 184 182 202 168 165 197 200 172 179 196 202 200 161 137 185 221 303 325 303
180 183 187 184 179 175 188 175 158 154 156 160 158 143 129 120 110 102 100 122 143 163 166 158 186 214 217 246 223 226 236 243 235 223 214 206 205 207 199 202 199 196 191 190 199 205 207 198 191 191 192 185 180 177 184 193 203 193 169 168 168 165 169 170 180 188 179 188 204 180 190 210 203 199 197 200 132 102 131 138 168 272 30 293 274
190 187 187 174 172 172 165 166 155 170 170 145 143 137 139 130 114 109 100 89 103 87 121 142 215 225 223 224 242 250 263 270 256 232 227 216 202 198 200 207 196 193 194 191 198 196 198 189 176 179 181 184 184 182 185 193 194 183 182 187 179 170 165 178 193 182 183 199 185 186 204 211 211 189 196 162 146 164 175 157 154 128 129 75 307
185 187 178 172 170 167 166 163 165 166 150 156 152 151 134 124 114 111 111 93 67 81 68 111 45 358 308 300 273 284 286 300 261 247 233 226 207 200 195 199 199 208 209 205 196 184 182 166 172 178 188 185 176 180 186 190 189 183 179 184 193 204 201 173 174 180 194 187 188 207 195 216 188 178 179 156 168 147 147 148 167 167 177 188 208
178 180 177 175 174 164 159 164 167 159 166 158 153 144 136 127 130 134 144 145 102 104 120 105 58 45 38 310 305 312 313 329 307 281 256 236 208 175 181 188 190 221 220 224 191 173 162 171 172 184 172 168 161 156 154 173 183 181 184 192 200 201 203 225 204 193 174 183 195 204 207 189 174 202 180 163 141 168 154 183 185 181 175 205 215
176 179 174 175 163 161 159 162 164 166 159 156 152 149 145 156 159 156 136 128 130 125 113 113 92 80 58 345 299 319 347 357 304 261 242 226 192 164 88 91 29 354 337 265 205 190 190 186 179 180 153 147 135 138 137 145 156 162 178 188 197 207 209 207 158 139 166 194 189 211 200 169 195 163 164 148 156 183 176 202 177 191 203 211 193
178 174 173 170 161 163 160 165 164 161 161 159 155 158 157 152 150 151 133 134 135 153 152 124 93 104 100 141 223 310 37 67 159 218 210 185 173 145 112 108 119 123 119 158 200 207 199 194 184 173 163 174 167 163 164 170 168 174 178 191 195 204 208 193 161 152 161 182 192 184 150 146 133 129 129 152 162 157 174 179 183 196 196 278 268
171 165 170 174 170 167 163 167 164 161 161 161 158 156 153 150 154 146 117 103 99 107 101 116 140 148 156 158 151 268 33 144 198 208 193 178 168 151 145 151 164 168 172 176 185 188 185 184 178 175 175 182 190 182 176 165 168 175 186 195 202 214 225 202 159 148 153 144 151 155 149 148 142 143 150 145 145 153 139 110 106 124 154 244 238
173 173 174 173 171 167 166 163 164 163 164 159 161 158 154 151 154 147 126 135 133 132 147 139 142 133 119 119 154 45 54 32 206 203 193 181 161 155 158 167 181 187 189 183 189 186 188 184 176 161 175 193 195 193 185 170 178 185 191 195 200 203 218 194 198 191 187 183 176 164 159 161 162 168 172 174 170 164 148 162 211 169 182 216 254
176 174 177 173 168 167 167 163 161 162 159 167 165 159 150 149 161 159 145 146 137 157 156 120 115 125 133 113 103 96 60 92 168 193 181 188 169 175 175 183 203 192 188 187 190 192 188 178 174 173 175 191 194 198 192 179 189 194 191 193 200 212 212 180 186 200 194 191 184 174 176 180 179 190 200 208 205 179 166 202 190 156 201 196 219
177 176 173 167 165 163 162 159 159 157 167 170 163 161 166 168 158 146 134 135 151 162 151 143 148 148 159 168 164 165 179 182 190 189 188 189 180 174 172 179 191 193 185 190 184 184 180 183 184 184 184 188 196 201 197 187 198 195 197 190 207 215 210 175 182 174 176 175 184 171 182 179 180 179 204 219 224 213 200 206 150 173 192 204 194
167 154 151 157 156 159 161 160 159 161 169 165 162 155 151 142 148 141 141 141 147 153 161 157 152 166 166 169 176 183 188 194 188 202 200 200 190 177 177 183 204 199 190 192 192 196 188 187 194 196 192 193 199 203 204 196 200 202 191 204 207 224 180 178 189 182 185 188 188 185 181 125 149 173 191 217 230 227 208 198 191 188 197 196 192
152 154 152 153 156 159 158 157 159 166 161 158 150 138 148 149 143 143 141 141 134 134 142 145 129 148 160 155 166 207 215 222 219 209 216 211 204 190 205 210 214 204 204 203 207 204 201 202 204 204 201 200 203 207 209 208 205 206 207 216 220 144 139 181 191 181 188 190 190 186 183 179 193 201 213 213 220 220 205 195 192 190 189 192 189
149 149 152 150 151 151 152 154 151 149 147 143 137 134 146 148 150 143 140 135 131 126 132 136 119 140 161 167 174 200 205 196 196 211 216 217 212 207 204 220 194 188 196 225 220 224 218 208 209 209 213 210 208 211 215 216 211 209 225 228 194 164 168 181 175 175 181 182 186 200 197 201 211 215 218 218 216 214 210 207 198 199 206 203 191
146 145 142 145 148 149 147 145 145 147 151 147 135 134 144 145 150 145 143 139 138 140 142 150 130 148 193 211 209 201 201 204 197 206 215 218 217 216 213 208 182 175 189 211 214 221 212 216 215 207 217 221 216 216 218 219 218 217 218 215 203 181 152 156 162 167 179 188 192 212 212 210 214 218 216 217 212 208 209 206 205 198 207 208 217
146 144 148 150 150 149 148 145 145 149 149 138 131 136 151 158 157 159 151 145 144 142 151 146 150 176 233 259 270 261 240 218 219 212 218 223 227 226 227 219 191 195 193 218 219 215 213 213 210 210 215 222 225 221 222 220 221 225 215 211 202 182 133 150 158 179 186 197 213 221 222 215 214 222 217 209 206 201 200 195 197 194 190 204 215
147 149 151 151 147 146 138 142 148 151 149 141 138 145 154 159 151 166 146 145 146 147 156 158 171 200 221 273 288 285 265 240 238 226 217 222 229 231 231 226 211 180 194 227 207 213 218 215 209 213 214 221 227 230 231 231 231 231 217 205 192 164 173 175 182 175 201 215 221 226 225 220 216 221 204 187 172 153 154 175 167 185 186 220 241
146 148 147 147 147 143 142 143 147 147 144 140 139 146 152 162 154 162 158 152 149 146 151 158 172 187 247 265 268 272 278 265 259 262 231 231 234 238 235 232 234 230 214 192 207 212 218 219 212 212 217 222 229 234 240 242 242 237 217 197 198 191 183 186 189 195 215 219 222 225 237 246 217 186 152 144 161 193 173 179 173 230 201 226 244
139 142 147 147 146 148 148 151 146 140 134 128 127 133 141 150 151 160 164 155 154 152 158 165 178 194 236 266 289 306 308 290 283 276 275 240 249 257 260 262 256 247 244 224 207 205 211 213 208 212 211 222 225 228 237 244 244 239 225 205 204 196 196 202 204 214 227 235 244 267 305 131 99 123 164 173 181 110 85 128 199 224 204 220 223
144 147 147 146 147 150 149 144 140 135 134 131 131 129 142 154 160 175 171 171 151 164 165 186 195 200 226 254 275 314 295 301 286 263 259 227 237 222 221 233 238 233 235 236 214 208 209 213 220 231 224 238 230 226 228 223 222 226 232 223 213 189 198 207 224 228 237 242 284 292 219 163 199 187 165 163 163 158 162 177 208 235 221 191 235
136 138 143 139 145 148 145 143 139 137 137 139 146 157 157 165 173 212 261 171 168 168 180 193 201 202 186 199 204 252 276 276 260 228 229 215 199 200 216 227 229 234 231 218 182 208 165 189 201 226 210 217 222 223 223 220 226 217 223 224 196 183 193 197 218 222 217 213 229 223 229 197 210 178 175 179 192 169 184 189 212 192 225 204 225
137 143 146 144 143 140 135 136 137 137 139 137 123 76 62 161 166 160 228 227 202 180 159 182 198 183 175 223 189 203 228 235 266 268 241 226 223 214 216 218 213 217 230 223 183 199 217 215 226 219 227 220 227 228 225 216 220 219 220 221 207 198 205 214 219 221 211 213 217 221 224 204 209 200 190 200 192 195 188 195 192 198 182 216 225
136 141 145 148 149 142 139 135 139 133 131 129 125 128 103 40 140 156 160 134 122 118 110 138 146 157 154 249 278 247 265 291 305 302 282 258 240 230 229 230 230 229 223 197 189 206 227 232 239 231 233 228 234 238 230 226 228 225 226 215 215 214 218 223 225 221 223 220 226 227 226 219 225 213 206 214 199 199 188 198 188 206 211 209 222
145 152 147 144 140 138 134 132 132 130 131 133 139 136 132 122 61 44 80 85 65 50 42 21 16 360 331 255 235 317 325 315 310 313 313 302 284 266 251 244 242 236 228 196 206 235 226 238 248 245 240 241 244 242 237 234 236 231 234 229 230 219 222 233 227 222 231 228 232 233 228 228 230 227 226 224 220 209 206 188 203 196 214 216 225
141 143 142 139 137 135 134 132 136 135 138 135 127 122 122 126 122 99 357 26 62 68 48 39 24 8 356 345 337 314 311 318 322 318 311 310 304 290 272 269 263 253 244 240 219 245 236 240 247 253 244 248 250 244 247 241 240 238 231 235 241 233 227 233 211 220 224 229 230 236 229 230 230 229 230 227 222 222 217 208 213 207 205 214 226
145 146 147 144 138 139 137 138 134 133 131 126 127 122 125 128 130 133 102 36 4 1 24 34 29 22 3 360 356 347 344 339 335 329 321 316 309 301 289 273 271 270 255 234 235 246 238 243 251 252 252 253 253 249 250 248 246 246 244 243 244 245 238 204 200 223 225 227 230 237 232 232 226 227 232 230 227 227 225 221 207 204 211 214 217
131 126 128 129 130 133 135 133 128 126 123 123 126 124 128 128 126 124 128 127 115 85 320 332 353 19 10 355 346 350 350 352 355 351 349 338 328 313 307 325 291 300 294 277 234 237 241 244 251 253 250 252 250 242 249 249 246 244 244 247 247 242 237 215 220 219 223 226 230 232 229 230 229 228 229 231 229 226 225 222 217 213 214 217 216
125 126 126 125 123 126 126 124 124 124 125 128 127 127 125 125 122 133 137 135 132 138 2 274 295 309 350 14 16 9 357 3 1 4 2 357 344 334 332 295 275 265 251 262 258 262 256 252 252 259 248 252 249 246 246 249 247 248 244 242 246 239 234 230 225 221 224 224 229 231 228 231 227 227 232 236 234 233 232 227 224 222 219 219 218
123 122 123 123 123 119 114 112 113 117 118 118 117 111 109 109 110 104 108 114 125 135 152 262 357 356 351 2 16 5 14 14 15 16 9 3 355 11 337 256 255 271 268 263 262 261 264 262 259 262 258 253 253 249 250 250 250 250 252 246 246 244 240 231 227 218 219 223 228 225 227 231 227 224 222 233 238 237 236 235 231 226 222 221 212
117 123 126 124 117 112 110 112 114 109 104 104 100 103 103 96 97 103 99 93 108 103 55 10 82 100 53 324 332 10 10 15 46 31 27 18 12 0 345 331 304 279 275 277 267 260 264 266 258 256 258 255 257 257 254 256 251 250 251 250 245 244 244 243 236 223 219 224 226 225 227 232 228 224 223 231 235 237 236 233 229 228 229 222 215
106 108 110 110 104 110 113 111 106 104 102 98 98 102 105 101 92 85 85 95 78 76 74 56 47 30 1 344 356 348 28 18 24 11 8 9 354 353 344 328 311 301 290 285 287 281 275 274 269 263 262 260 263 262 260 260 259 254 252 252 252 249 245 241 238 229 225 227 229 228 227 232 231 226 223 229 237 236 235 233 227 224 223 220 217
111 108 105 107 104 102 105 107 107 104 106 107 107 104 105 111 127 141 147 125 119 114 91 71 31 16 352 1 359 5 21 10 6 351 349 351 352 345 343 330 319 308 308 304 306 302 303 302 304 300 293 286 279 278 274 275 272 271 267 260 262 260 251 239 238 234 232 229 230 230 227 230 229 228 228 231 234 232 233 230 228 223 222 223 223
112 108 107 103 106 105 96 95 97 105 105 107 113 111 125 130 138 132 123 111 104 76 63 53 40 359 6 2 5 9 32 7 352 353 344 342 339 339 330 322 318 315 313 314 309 309 306 309 309 310 310 312 311 309 306 300 294 288 279 270 261 260 261 251 239 236 235 231 230 231 230 231 228 223 231 231 232 233 235 234 230 226 222 221 217
114 111 105 102 98 98 104 104 110 106 106 110 109 123 127 129 125 115 103 99 84 87 72 50 26 18 360 6 10 5 16 357 0 348 342 338 334 326 322 321 318 318 316 314 312 312 314 314 315 316 316 315 318 314 314 307 301 292 285 277 268 265 260 256 243 237 235 235 235 232 229 228 228 229 236 238 232 232 231 229 228 225 223 219 215
102 103 103 103 101 109 117 122 117 114 117 117 128 124 120 112 104 103 96 91 96 91 95 69 14 21 11 4 9 6 14 0 354 345 338 328 324 322 324 321 320 320 317 316 316 317 314 313 314 315 316 315 317 315 312 310 310 305 297 288 277 271 265 263 252 240 234 237 239 236 233 232 233 232 229 228 227 227 228 227 226 224 222 219 216
103 100 98 98 101 96 95 104 112 115 121 119 115 109 108 102 96 97 102 100 93 89 80 67 44 27 6 358 7 14 6 356 351 331 330 327 326 324 324 326 329 330 326 324 318 322 321 319 318 318 319 317 317 317 316 318 324 323 317 311 301 291 282 274 266 251 235 236 240 241 241 239 238 234 233 226 220 223 225 222 222 221 219 219 216
93 100 103 104 98 105 102 102 108 112 107 100 94 90 91 92 89 85 89 83 67 58 47 42 26 24 11 7 5 10 358 356 343 342 331 328 328 328 325 328 324 324 320 320 321 327 326 322 321 320 321 320 321 324 326 327 328 323 320 313 309 302 299 290 276 260 244 237 240 240 237 238 233 231 230 224 219 221 224 220 216 218 218 216 210
90 97 103 109 110 108 108 110 107 104 106 104 102 94 89 78 79 77 67 56 47 50 39 28 31 23 21 13 5 9 352 351 342 331 331 330 326 322 317 317 315 316 314 312 315 317 315 316 317 318 319 319 319 317 312 313 309 310 309 307 302 300 300 299 302 293 269 257 251 251 247 239 235 228 224 222 220 218 222 219 214 213 214 213 212
81 93 96 107 109 112 103 105 98 96 91 88 87 87 74 71 67 55 52 49 51 41 42 30 31 18 13 7 1 350 342 341 325 321 316 311 315 312 314 312 316 313 314 315 315 313 316 317 319 319 316 316 314 314 310 305 299 296 296 297 298 295 296 291 289 281 278 264 258 254 250 248 240 234 226 222 222 217 217 216 212 210 211 209 208
88 89 92 93 96 96 95 89 87 84 78 77 73 72 73 68 58 58 50 47 42 40 36 26 23 12 14 356 339 343 327 322 314 315 311 316 309 322 329 338 332 331 323 321 317 319 320 320 317 314 311 312 313 312 312 310 307 302 295 291 288 288 288 287 284 279 275 271 262 257 253 251 249 240 225 215 215 211 211 216 211 213 207 208 202
60 67 73 66 59 64 73 72 75 75 82 82 76 71 73 69 64 61 59 52 53 38 46 39 6 360 356 329 323 320 310 314 310 308 312 314 324 325 322 315 316 313 317 315 315 317 316 312 311 310 311 311 313 313 311 308 305 301 298 290 294 296 293 291 287 275 270 267 265 260 256 254 249 242 226 213 212 209 211 209 205 204 201 199 195
48 51 58 58 66 63 65 62 63 66 76 85 92 82 77 83 69 65 62 56 50 36 22 14 15 320 314 311 313 306 307 306 306 306 308 308 310 304 305 306 308 306 309 304 305 304 309 309 314 316 319 320 316 312 307 303 300 300 297 290 295 298 292 288 284 282 279 267 264 257 257 252 250 240 225 209 205 201 202 201 197 191 191 191 193
56 63 63 69 66 71 60 66 62 78 83 91 90 99 96 78 88 70 72 58 45 350 351 327 300 301 303 288 291 293 296 293 293 293 294 296 296 301 302 307 306 304 300 303 301 308 307 317 316 320 316 315 309 306 301 301 299 297 301 306 309 310 304 294 285 281 278 275 263 258 251 251 245 240 219 206 193 198 195 190 183 183 186 188 181